This is the latest recevied weather packets stored in our database for station/object EA6AMR-10. If no packets are shown the sender has not sent any weather packets the latest 10 day(s).
| Time | Temp. | Humidity | Pressure | Rain* | Wind** | Luminosity | Snow |
|---|---|---|---|---|---|---|---|
| 1777245260 | 13.33° C | 46% | 1020 hPa | - | - | - | - |
| 1777244360 | 13.33° C | 47% | 1020 hPa | - | - | - | - |
| 1777243460 | 13.33° C | 47% | 1020.1 hPa | - | - | - | - |
| 1777242560 | 13.33° C | 46% | 1020.1 hPa | - | - | - | - |
| 1777241660 | 13.89° C | 46% | 1020.2 hPa | - | - | - | - |
| 1777240759 | 13.89° C | 46% | 1020.2 hPa | - | - | - | - |
| 1777239859 | 14.44° C | 45% | 1020 hPa | - | - | - | - |
| 1777238959 | 14.44° C | 45% | 1019.9 hPa | - | - | - | - |
| 1777238059 | 15° C | 45% | 1019.8 hPa | - | - | - | - |
| 1777237159 | 15° C | 45% | 1019.8 hPa | - | - | - | - |
| 1777236258 | 15.56° C | 45% | 1019.8 hPa | - | - | - | - |
| 1777235402 | 15.56° C | 45% | 1019.7 hPa | - | - | - | - |
| 1777235363 | 15.56° C | 45% | 1019.7 hPa | - | - | - | - |
| 1777234463 | 16.11° C | 45% | 1019.7 hPa | - | - | - | - |
| 1777233563 | 16.67° C | 45% | 1019.6 hPa | - | - | - | - |
| 1777232702 | 17.22° C | 45% | 1019.3 hPa | - | - | - | - |
| 1777232663 | 17.22° C | 45% | 1019.3 hPa | - | - | - | - |
| 1777231762 | 17.78° C | 44% | 1019.2 hPa | - | - | - | - |
| 1777230895 | 18.33° C | 44% | 1019.1 hPa | - | - | - | - |
| 1777230862 | 18.33° C | 44% | 1019.1 hPa | - | - | - | - |
| 1777229962 | 18.89° C | 44% | 1018.9 hPa | - | - | - | - |
| 1777229110 | 20° C | 44% | 1018.9 hPa | - | - | - | - |
| 1777229062 | 20° C | 44% | 1018.9 hPa | - | - | - | - |
| 1777228198 | 21.11° C | 44% | 1018.8 hPa | - | - | - | - |
| 1777228162 | 21.11° C | 44% | 1018.8 hPa | - | - | - | - |
* Rain since midnight (hover to see other rain measurements)
** Current wind speed in m/s (hover to see current wind gust speed)